EW3714 Weather Reports


Display with metric or nautical units.
time (UTC)temp
F
wind
direction
speed
MPH
gust
MPH
rain 1hr
in
rain 24hr
in
rain mn
in
humidity
%
barometer
mb
20191020054847 65 360 0.0 0.0 0.00 0.00 0.00 67 1008.0
20191020053847 66 360 0.0 0.0 0.00 0.00 0.00 66 1008.0
20191020052847 66 360 0.0 0.0 0.00 0.00 0.00 66 1007.9
20191020051847 66 360 0.0 0.0 0.00 0.00 0.00 63 1007.9
20191020050847 67 360 0.0 0.0 0.00 0.00 0.00 63 1007.9
20191020045847 68 360 0.0 0.0 0.00 0.00 0.00 62 1007.8
20191020044847 68 360 0.0 0.0 0.00 0.00 0.00 60 1007.7
20191020043847 69 360 0.0 0.0 0.00 0.00 0.00 58 1007.6
20191020042847 70 360 0.0 0.0 0.00 0.00 0.00 57 1007.5
20191020041847 71 360 0.0 0.0 0.00 0.00 0.00 55 1007.5
20191020040847 71 360 0.0 0.0 0.00 0.00 0.00 52 1007.4
20191020035847 71 360 0.0 0.0 0.00 0.00 0.00 51 1007.4
20191020034848 71 360 0.0 0.0 0.00 0.00 0.00 50 1007.4
20191020033847 71 360 0.0 0.0 0.00 0.00 0.00 51 1007.4
20191020032847 72 360 0.0 0.0 0.00 0.00 0.00 50 1007.3
20191020031847 72 360 0.0 0.0 0.00 0.00 0.00 51 1007.2
20191020030847 73 360 0.0 0.0 0.00 0.00 0.00 48 1007.0
20191020025847 74 360 0.0 0.0 0.00 0.00 0.00 45 1006.9
20191020024847 74 360 0.0 0.0 0.00 0.00 0.00 43 1006.7
20191020023847 74 360 0.0 2.0 0.00 0.00 0.00 41 1006.6
20191020022847 74 360 0.0 0.0 0.00 0.00 0.00 43 1006.5
20191020021847 75 360 0.0 1.0 0.00 0.00 0.00 41 1006.3
20191020020847 76 360 0.0 1.0 0.00 0.00 0.00 43 1006.2
20191020015848 77 360 0.0 0.0 0.00 0.00 0.00 44 1006.1
20191020014847 77 360 0.0 0.0 0.00 0.00 0.00 40 1006.0
20191020013847 78 360 0.0 0.0 0.00 0.00 0.00 39 1005.9
20191020012847 79 360 0.0 0.0 0.00 0.00 0.00 36 1005.7
20191020011847 80 360 0.0 0.0 0.00 0.00 0.00 36 1005.6
20191020010848 81 360 0.0 0.0 0.00 0.00 0.00 36 1005.3
20191020005848 82 360 0.0 0.0 0.00 0.00 0.00 32 1005.3
20191020004848 82 360 0.0 0.0 0.00 0.00 0.00 30 1005.1
20191020003847 83 360 0.0 0.0 0.00 0.00 0.00 32 1005.0
20191020002848 84 360 0.0 0.0 0.00 0.00 0.00 31 1004.9
20191020001847 85 360 0.0 0.0 0.00 0.00 0.00 32 1004.9
20191020000848 86 360 0.0 0.0 0.00 0.00 0.00 30 1004.7
20191019235847 87 360 0.0 0.0 0.00 0.00 0.00 31 1004.6
20191019234848 88 360 0.0 0.0 0.00 0.00 0.00 30 1004.5
20191019233848 89 360 0.0 0.0 0.00 0.00 0.00 32 1004.4
20191019232848 90 360 0.0 0.0 0.00 0.00 0.00 29 1004.3
20191019231848 90 360 0.0 0.0 0.00 0.00 0.00 27 1004.3
20191019230848 90 360 0.0 0.0 0.00 0.00 0.00 27 1004.1
20191019225848 91 360 0.0 0.0 0.00 0.00 0.00 26 1004.1
20191019224848 91 360 0.0 0.0 0.00 0.00 0.00 28 1004.1
20191019223848 92 360 0.0 0.0 0.00 0.00 0.00 27 1004.1
20191019222848 92 360 0.0 0.0 0.00 0.00 0.00 27 1004.1
20191019221848 92 360 0.0 0.0 0.00 0.00 0.00 27 1004.1
20191019220848 92 360 0.0 0.0 0.00 0.00 0.00 27 1004.2
20191019215848 93 360 0.0 0.0 0.00 0.00 0.00 26 1004.2
20191019214848 93 360 0.0 0.0 0.00 0.00 0.00 27 1004.1
20191019213848 93 360 0.0 0.0 0.00 0.00 0.00 26 1004.2
20191019212848 94 360 0.0 5.0 0.00 0.00 0.00 27 1004.3
20191019211848 94 360 0.0 5.0 0.00 0.00 0.00 26 1004.2
20191019210849 94 360 0.0 0.0 0.00 0.00 0.00 26 1004.2
20191019205848 94 360 0.0 0.0 0.00 0.00 0.00 25 1004.4
20191019204848 95 360 0.0 0.0 0.00 0.00 0.00 25 1004.5
20191019203848 95 360 0.0 0.0 0.00 0.00 0.00 25 1004.6
20191019202848 95 360 0.0 0.0 0.00 0.00 0.00 26 1004.6
20191019201848 96 360 0.0 1.0 0.00 0.00 0.00 27 1004.5
20191019200848 96 360 0.0 1.0 0.00 0.00 0.00 31 1004.6
20191019195848 95 360 0.0 0.0 0.00 0.00 0.00 31 1004.6
20191019194848 94 360 0.0 0.0 0.00 0.00 0.00 32 1004.7
20191019193848 94 360 0.0 8.0 0.00 0.00 0.00 32 1004.8
20191019192848 94 360 0.0 6.0 0.00 0.00 0.00 32 1005.0
20191019191848 94 360 0.0 10.0 0.00 0.00 0.00 33 1005.2
20191019190848 93 360 2.0 9.0 0.00 0.00 0.00 34 1005.4
20191019185848 93 360 0.0 8.0 0.00 0.00 0.00 33 1005.5
20191019184848 92 360 8.0 8.0 0.00 0.00 0.00 34 1005.6
20191019183848 92 360 5.0 5.0 0.00 0.00 0.00 40 1005.8
20191019182848 92 360 1.0 8.0 0.00 0.00 0.00 42 1005.9
20191019181848 92 360 0.0 4.0 0.00 0.00 0.00 45 1006.1
20191019180848 91 360 1.0 4.0 0.00 0.00 0.00 49 1006.2
20191019175848 90 360 1.0 5.0 0.00 0.00 0.00 51 1006.4
20191019174848 89 360 0.0 8.0 0.00 0.00 0.00 51 1006.5
20191019173848 89 360 4.0 11.0 0.00 0.00 0.00 51 1006.7
20191019172848 89 360 1.0 6.0 0.00 0.00 0.00 52 1006.7
20191019171848 88 360 0.0 3.0 0.00 0.00 0.00 55 1006.7
20191019170848 88 360 0.0 4.0 0.00 0.00 0.00 59 1006.9
20191019165848 87 360 0.0 4.0 0.00 0.00 0.00 61 1006.9
20191019164848 86 360 0.0 8.0 0.00 0.00 0.00 62 1007.0
20191019163848 85 360 0.0 6.0 0.00 0.00 0.00 64 1007.1
20191019162848 84 360 0.0 3.0 0.00 0.00 0.00 68 1007.2
20191019161848 83 360 0.0 6.0 0.00 0.00 0.00 70 1007.2
20191019160848 81 360 0.0 1.0 0.00 0.00 0.00 72 1007.3
20191019155848 80 360 0.0 4.0 0.00 0.00 0.00 74 1007.3
20191019154848 79 360 0.0 2.0 0.00 0.00 0.00 76 1007.3
20191019153848 78 360 0.0 0.0 0.00 0.00 0.00 79 1007.3
20191019152849 76 360 0.0 1.0 0.00 0.00 0.00 82 1007.4
20191019151848 75 360 0.0 0.0 0.00 0.00 0.00 84 1007.4
20191019150848 74 360 0.0 2.0 0.00 0.00 0.00 86 1007.5
20191019145848 74 360 0.0 0.0 0.00 0.00 0.00 88 1007.5
20191019144848 72 360 0.0 1.0 0.00 0.00 0.00 89 1007.5
20191019143848 72 360 0.0 2.0 0.00 0.00 0.00 90 1007.5
20191019142848 71 360 0.0 0.0 0.00 0.00 0.00 91 1007.5
20191019141849 71 360 0.0 0.0 0.00 0.00 0.00 92 1007.3
20191019140848 70 360 0.0 1.0 0.00 0.00 0.00 92 1007.3
20191019135848 70 360 0.0 0.0 0.00 0.00 0.00 92 1007.1
20191019134850 70 360 0.0 0.0 0.00 0.00 0.00 92 1007.0
20191019133848 69 360 0.0 0.0 0.00 0.00 0.00 92 1006.9
20191019132849 69 360 0.0 0.0 0.00 0.00 0.00 92 1006.6
20191019131848 69 360 0.0 0.0 0.00 0.00 0.00 92 1006.6
20191019130848 69 360 0.0 1.0 0.00 0.00 0.00 92 1006.5
20191019125848 68 360 0.0 0.0 0.00 0.00 0.00 92 1006.5
20191019124849 68 360 0.0 0.0 0.00 0.00 0.00 91 1006.5
20191019123848 68 360 0.0 0.0 0.00 0.00 0.00 91 1006.4
20191019122848 68 360 0.0 0.0 0.00 0.00 0.00 92 1006.4
20191019121848 68 360 0.0 0.0 0.00 0.00 0.00 92 1006.4
20191019120848 68 360 0.0 0.0 0.00 0.00 0.00 92 1006.5
20191019115849 68 360 0.0 0.0 0.00 0.00 0.00 92 1006.4
20191019114848 68 360 0.0 0.0 0.00 0.00 0.00 92 1006.5
20191019113848 68 360 0.0 0.0 0.00 0.00 0.00 92 1006.5
20191019112848 68 360 0.0 0.0 0.00 0.00 0.00 92 1006.5
20191019111849 68 360 0.0 0.0 0.00 0.00 0.00 92 1006.6
20191019110849 68 360 0.0 0.0 0.00 0.00 0.00 92 1006.5
20191019105848 68 360 0.0 0.0 0.00 0.00 0.00 92 1006.5
20191019104849 67 360 0.0 0.0 0.00 0.00 0.00 92 1006.5
20191019103849 67 360 0.0 0.0 0.00 0.00 0.00 92 1006.5
20191019102849 67 360 0.0 0.0 0.00 0.00 0.00 93 1006.4
20191019101849 67 360 0.0 0.0 0.00 0.00 0.00 92 1006.4
20191019100850 67 360 0.0 0.0 0.00 0.00 0.00 92 1006.2
20191019095849 67 360 0.0 0.0 0.00 0.00 0.00 92 1006.0
20191019094849 66 360 0.0 0.0 0.00 0.00 0.00 92 1006.3
20191019093849 66 360 0.0 0.0 0.00 0.00 0.00 92 1006.3
20191019092849 66 360 0.0 0.0 0.00 0.00 0.00 92 1006.6
20191019091849 66 360 0.0 0.0 0.00 0.00 0.00 92 1006.6
20191019090849 66 360 0.0 0.0 0.00 0.00 0.00 92 1006.8
20191019085849 66 360 0.0 1.0 0.00 0.00 0.00 91 1006.8
20191019084849 66 360 0.0 0.0 0.00 0.00 0.00 90 1006.8
20191019083849 66 360 0.0 0.0 0.00 0.00 0.00 90 1006.0
20191019082849 66 360 0.0 0.0 0.00 0.00 0.00 90 1005.7
20191019081849 66 360 0.0 2.0 0.00 0.00 0.00 90 1005.9
20191019080849 66 360 0.0 1.0 0.00 0.00 0.00 90 1005.9
20191019075849 67 360 0.0 1.0 0.00 0.00 0.00 89 1005.9
20191019074849 67 360 0.0 0.0 0.00 0.00 0.00 89 1006.0
20191019073849 67 360 0.0 0.0 0.00 0.00 0.00 89 1005.8
20191019072849 67 360 0.0 5.0 0.00 0.00 0.00 89 1005.6
20191019071849 67 360 0.0 5.0 0.00 0.00 0.00 88 1005.7
20191019070849 67 360 0.0 1.0 0.00 0.00 0.00 88 1005.7
20191019065849 67 360 1.0 2.0 0.00 0.00 0.00 87 1005.5
20191019064849 67 360 0.0 4.0 0.00 0.00 0.00 87 1005.4
20191019063849 67 360 0.0 6.0 0.00 0.00 0.00 87 1005.5
20191019062849 67 360 0.0 3.0 0.00 0.00 0.00 86 1005.4
20191019061849 67 360 0.0 4.0 0.00 0.00 0.00 85 1005.6
20191019060849 67 360 0.0 4.0 0.00 0.00 0.00 84 1005.7
20191019055849 66 360 0.0 1.0 0.00 0.00 0.00 83 1005.7